Terminal Aerodrome Forecast
Issued by NWS

Home | Current Version | Previous Version | Text Only | Print | Product List | Glossary On
Versions: 1 2 3 4 5 6 7 8 9 10 11 12 13 14 15 16 17 18 19 20 21 22 23 24 25 26 27 28 29 30 31 32 33 34 35 36 37 38 39 40 41 42 43 44 45 46 47 48 49 50
001
FTUS41 KCTP 230605 RRB
TAFAOO
TAF
KAOO 230605Z 2306/2406 19007KT P6SM OVC100 WS020/23040KT
     FM231300 18008KT P6SM -FZRA OVC050 WS020/24045KT
     FM231600 18008KT 6SM -RA OVC050 WS020/24050KT
     FM232000 18008KT 4SM -RA OVC025 WS020/23050KT
     FM240000 20007KT 2SM -RA OVC015 WS020/21045KT=

USA.gov is the U.S. government's official web portal to all federal, state and local government web resources and services.